Observer details:
204 Schiaparelli Observatory.  Observers L. Buzzi, S. Di Filippo.  0.60-m
    f/4.64 reflector.
235 CAST Observatory, Talmassons.  Observer R. Ligustri.  0.35-m f/5 reflector
    + CCD.
340 Toyonaka.  Observer Y. Ezaki.  0.30-m f/6.0 reflector + CCD.
349 Ageo.  Observer K. Kadota.  0.18-m f/5.5 reflector + CCD, 0.25-m f/5.0
    reflector + CCD.
355 Hadano.  Observer A. Asami.  0.28-m f/5.0 reflector + CCD.
557 Ondrejov.  Observer P. Kusnirak.  0.65-m f/3.6 reflector + CCD.
587 Sormano.  Observers G. Ventre, E. Colzani.  Measurer F. Manca.  0.5-m
    reflector + CCD.
595 Farra d'Isonzo.  Observer E. Pettarin.  Measurer M. Spolaor.  0.30-m f/4.0
    reflector + CCD.
616 Brno.  Observers M. Lehky, K. Hornoch, D. Hanzl, F. Hroch, P. Klepac,
    G. Opletalova, M. Sebestova, E. Safarova, B. W. Wilsonwald,
    A. D. Brunensis.  0.62-m f/4.5 reflector + CCD.
619 Sabadell.  Observer R. Josa.  0.50-m f/4 reflector.
945 Observatorio Monte Deva.  Observer J. R. Vidal.  0.36~m f/3.3
    Schmidt-Cassegrain + CCD.
A02 Masia Cal Maciarol.  Observer J. Salto.  0.25-m f/3.7 Schmidt-Cassegrain
    + CCD.

Orbital elements:
    C/2002 X5 (Kudo-Fujikawa)
T 2003 Jan. 29.0046 TT                                  MPC
q   0.190082             (2000.0)            P               Q
                   Peri.  187.5614      +0.4732887      -0.1266477
                   Node   119.0674      -0.7469909      +0.4668232
e   1.0            Incl.   94.1509      -0.4669072      -0.8752351
From 277 observations 2002 Dec. 14-2003 Jan. 4.

Ephemeris:
    C/2002 X5 (Kudo-Fujikawa)
Date    TT    R. A. (2000) Decl.     Delta      r     Elong.  Phase   m1    m2
2003 01 01    18 09.04   +28 30.3    0.980    0.864    52.2    64.1   7.8
2003 01 03    18 22.70   +25 48.9    0.980    0.818    49.2    65.6   7.6
2003 01 05    18 35.74   +23 00.9    0.983    0.770    46.1    67.0   7.3
2003 01 07    18 48.15   +20 07.5    0.989    0.722    42.9    68.1   7.1
2003 01 09    18 59.96   +17 09.3    0.998    0.672    39.6    69.0   6.8
2003 01 11    19 11.19   +14 06.9    1.011    0.621    36.3    69.5   6.5
2003 01 13    19 21.87   +11 00.6    1.027    0.569    32.8    69.4   6.1
2003 01 15    19 32.05   +07 50.0    1.045    0.516    29.3    68.7   5.7
2003 01 17    19 41.78   +04 34.2    1.066    0.461    25.6    67.2   5.3
2003 01 19    19 51.14   +01 11.3    1.089    0.406    21.8    64.3   4.8
2003 01 21    20 00.24   -02 21.5    1.114    0.350    17.9    59.6   4.2
2003 01 23    20 09.21   -06 08.7    1.139    0.295    13.7    51.9   3.5
2003 01 25    20 18.32   -10 16.3    1.161    0.245     9.1    39.6   2.7
2003 01 27    20 27.99   -14 49.1    1.174    0.206     4.3    20.8   2.0
2003 01 29    20 38.86   -19 40.4    1.171    0.190     2.0    10.5   1.6
2003 01 31    20 51.45   -24 22.7    1.147    0.205     6.8    34.7   1.9

Brian G. Marsden             (C) Copyright 2003 MPC           M.P.E.C. 2003-A41

Read MPEC 2003-A40 Read MPEC 2003-A42


MPEC number:

Enter an MPEC number in one of the following forms:

  • 1997-B01 (the full form)
  • J97B01 (the packed version of the full form)
  • B01 (the abbreviated form)

